• în Republica Moldova
  • Lista ţărilor
  • Pe 7 zile
  • Temperatura apei
  • Hartă satelitară
  • Meteo pe hartă
  • Widget-uri
  • user-avatar
    Intrare

    Meteo pe oră la Mazyr

    Astăzi, 20 Octombrie, Sâmbătă

    Timp Temperatura Precipitaţii Vânt Presiune Umiditate
    00:00 +12°C° 0 mm 2 m/s 749 mmHg 89%
    01:00 +10°C° 0 mm 2 m/s 749 mmHg 91%
    02:00 +10°C° 0 mm 2 m/s 750 mmHg 95%
    03:00 +9°C° 0 mm 2 m/s 750 mmHg 95%
    04:00 +9°C° 0 mm 2 m/s 750 mmHg 96%
    05:00 +9°C° 0 mm 2 m/s 750 mmHg 97%
    06:00 +9°C° 0 mm 2 m/s 750 mmHg 95%
    07:00 +9°C° 0 mm 2 m/s 750 mmHg 93%
    08:00 +9°C° 0 mm 2 m/s 751 mmHg 89%
    09:00 +10°C° 0 mm 2 m/s 751 mmHg 82%
    10:00 +13°C° 0 mm 2 m/s 751 mmHg 75%
    11:00 +14°C° 0 mm 2 m/s 751 mmHg 67%
    12:00 +15°C° 0 mm 2 m/s 751 mmHg 64%
    13:00 +15°C° 0 mm 2 m/s 751 mmHg 61%
    14:00 +14°C° 0 mm 2 m/s 751 mmHg 59%
    15:00 +13°C° 0 mm 2 m/s 751 mmHg 63%
    16:00 +12°C° 0 mm 2 m/s 751 mmHg 67%
    17:00 +11°C° 0 mm 1 m/s 751 mmHg 70%
    18:00 +11°C° 0 mm 1 m/s 751 mmHg 72%
    19:00 +9°C° 0 mm 2 m/s 751 mmHg 75%
    20:00 +8°C° 0 mm 2 m/s 751 mmHg 77%
    21:00 +8°C° 0 mm 2 m/s 751 mmHg 77%
    22:00 +8°C° 0 mm 2 m/s 751 mmHg 78%
    23:00 +7°C° 0 mm 2 m/s 751 mmHg 78%

    Mâine, 21 Octombrie, Duminică

    Timp Temperatura Precipitaţii Vânt Presiune Umiditate
    00:00 +8°C° 0 mm 1 m/s 751 mmHg 79%
    01:00 +8°C° 0 mm 1 m/s 751 mmHg 80%
    02:00 +7°C° 0 mm 1 m/s 751 mmHg 80%
    03:00 +7°C° 0 mm 1 m/s 751 mmHg 81%
    04:00 +5°C° 0 mm 2 m/s 751 mmHg 82%
    05:00 +5°C° 0 mm 2 m/s 751 mmHg 84%
    06:00 +5°C° 0 mm 2 m/s 752 mmHg 81%
    07:00 +5°C° 0 mm 2 m/s 752 mmHg 79%
    08:00 +5°C° 0 mm 2 m/s 752 mmHg 77%
    09:00 +7°C° 0 mm 2 m/s 753 mmHg 70%
    10:00 +9°C° 0 mm 2 m/s 753 mmHg 62%
    11:00 +10°C° 0 mm 2 m/s 753 mmHg 55%
    12:00 +12°C° 0 mm 2 m/s 753 mmHg 52%
    13:00 +12°C° 0 mm 2 m/s 753 mmHg 49%
    14:00 +12°C° 0 mm 3 m/s 753 mmHg 46%
    15:00 +12°C° 0 mm 2 m/s 753 mmHg 51%
    16:00 +10°C° 0 mm 2 m/s 753 mmHg 55%
    17:00 +8°C° 0 mm 2 m/s 754 mmHg 60%
    18:00 +8°C° 0 mm 2 m/s 754 mmHg 63%
    19:00 +7°C° 0 mm 2 m/s 754 mmHg 66%
    20:00 +6°C° 0 mm 2 m/s 754 mmHg 70%
    21:00 +5°C° 0 mm 2 m/s 755 mmHg 72%
    22:00 +5°C° 0 mm 2 m/s 755 mmHg 75%
    23:00 +6°C° 0 mm 1 m/s 755 mmHg 78%

    Poimâine, 22 Octombrie, Luni

    Timp Temperatura Precipitaţii Vânt Presiune Umiditate
    00:00 +5°C° 0 mm 1 m/s 755 mmHg 80%
    01:00 +5°C° 0 mm 1 m/s 755 mmHg 82%
    02:00 +4°C° 0 mm 1 m/s 755 mmHg 84%
    03:00 +4°C° 0 mm 1 m/s 754 mmHg 85%
    04:00 +4°C° 0 mm 1 m/s 754 mmHg 87%
    05:00 +4°C° 0 mm 1 m/s 754 mmHg 88%
    06:00 +4°C° 0 mm 1 m/s 754 mmHg 86%
    07:00 +4°C° 0 mm 1 m/s 754 mmHg 84%
    08:00 +5°C° 0 mm 1 m/s 755 mmHg 81%
    09:00 +7°C° 0 mm 1 m/s 754 mmHg 72%
    10:00 +9°C° 0 mm 1 m/s 754 mmHg 63%
    11:00 +10°C° 0 mm 0 m/s 754 mmHg 54%
    12:00 +11°C° 0 mm 1 m/s 753 mmHg 51%
    13:00 +12°C° 0 mm 1 m/s 753 mmHg 48%
    14:00 +12°C° 0 mm 1 m/s 752 mmHg 44%
    15:00 +11°C° 0 mm 1 m/s 752 mmHg 49%
    16:00 +10°C° 0 mm 1 m/s 751 mmHg 54%
    17:00 +8°C° 0 mm 1 m/s 751 mmHg 58%
    18:00 +8°C° 0 mm 1 m/s 751 mmHg 61%
    19:00 +7°C° 0 mm 1 m/s 751 mmHg 64%
    20:00 +7°C° 0 mm 1 m/s 751 mmHg 67%
    21:00 +5°C° 0 mm 2 m/s 750 mmHg 69%
    22:00 +5°C° 0 mm 2 m/s 750 mmHg 72%
    23:00 +4°C° 0 mm 2 m/s 750 mmHg 75%

    23 Octombrie, Marţi

    Timp Temperatura Precipitaţii Vânt Presiune Umiditate
    00:00 +4°C° 0 mm 2 m/s 749 mmHg 78%
    01:00 +4°C° 0 mm 2 m/s 749 mmHg 80%
    02:00 +4°C° 0 mm 2 m/s 748 mmHg 83%
    03:00 +3°C° 0 mm 3 m/s 748 mmHg 85%
    04:00 +3°C° 0 mm 3 m/s 747 mmHg 87%
    05:00 +3°C° 0 mm 3 m/s 747 mmHg 89%
    06:00 +3°C° 0.2 mm 3 m/s 746 mmHg 89%
    07:00 +4°C° 0.2 mm 3 m/s 746 mmHg 89%
    08:00 +4°C° 0.2 mm 3 m/s 746 mmHg 88%
    09:00 +5°C° 0.1 mm 3 m/s 746 mmHg 85%
    10:00 +7°C° 0.1 mm 3 m/s 746 mmHg 82%
    11:00 +6°C° 0.1 mm 4 m/s 745 mmHg 79%
    12:00 +7°C° 0 mm 4 m/s 745 mmHg 71%
    13:00 +8°C° 0 mm 4 m/s 744 mmHg 63%
    14:00 +8°C° 0 mm 4 m/s 744 mmHg 54%
    15:00 +8°C° 0 mm 3 m/s 743 mmHg 56%
    16:00 +8°C° 0 mm 3 m/s 742 mmHg 57%
    17:00 +7°C° 0 mm 3 m/s 742 mmHg 59%
    18:00 +5°C° 0 mm 3 m/s 741 mmHg 61%
    19:00 +5°C° 0 mm 4 m/s 740 mmHg 63%
    20:00 +5°C° 0 mm 4 m/s 739 mmHg 65%
    21:00 +5°C° 0.1 mm 5 m/s 738 mmHg 67%
    22:00 +5°C° 0.1 mm 5 m/s 737 mmHg 69%
    23:00 +4°C° 0.1 mm 6 m/s 736 mmHg 71%

    24 Octombrie, Miercuri

    Timp Temperatura Precipitaţii Vânt Presiune Umiditate
    00:00 +4°C° 0.6 mm 6 m/s 734 mmHg 73%
    01:00 +4°C° 0.6 mm 7 m/s 732 mmHg 76%
    02:00 +4°C° 0.6 mm 7 m/s 731 mmHg 78%
    03:00 +4°C° 0.9 mm 7 m/s 729 mmHg 80%
    04:00 +4°C° 0.9 mm 7 m/s 728 mmHg 82%
    05:00 +4°C° 0.9 mm 7 m/s 727 mmHg 83%
    06:00 +5°C° 1 mm 6 m/s 726 mmHg 85%
    07:00 +5°C° 1 mm 6 m/s 725 mmHg 86%
    08:00 +6°C° 1 mm 5 m/s 725 mmHg 87%
    09:00 +6°C° 0.5 mm 5 m/s 725 mmHg 83%
    10:00 +6°C° 0.5 mm 5 m/s 725 mmHg 79%
    11:00 +6°C° 0.5 mm 5 m/s 725 mmHg 75%
    12:00 +5°C° 0.2 mm 6 m/s 726 mmHg 72%
    13:00 +5°C° 0.2 mm 6 m/s 726 mmHg 68%
    14:00 +4°C° 0.2 mm 6 m/s 727 mmHg 64%
    15:00 +4°C° 0 mm 6 m/s 727 mmHg 65%
    16:00 +3°C° 0 mm 5 m/s 728 mmHg 65%
    17:00 +3°C° 0 mm 5 m/s 728 mmHg 66%
    18:00 +3°C° 0 mm 5 m/s 728 mmHg 68%
    19:00 +3°C° 0 mm 5 m/s 728 mmHg 70%
    20:00 +3°C° 0 mm 5 m/s 728 mmHg 72%
    21:00 +3°C° 0.1 mm 5 m/s 728 mmHg 73%
    22:00 +3°C° 0.1 mm 5 m/s 728 mmHg 74%
    23:00 +3°C° 0.1 mm 5 m/s 728 mmHg 75%

    25 Octombrie, Joi

    Timp Temperatura Precipitaţii Vânt Presiune Umiditate
    00:00 +3°C° 0.3 mm 5 m/s 728 mmHg 76%
    01:00 +3°C° 0.3 mm 6 m/s 728 mmHg 78%
    02:00 +3°C° 0.3 mm 6 m/s 728 mmHg 80%
    03:00 +3°C° 0.1 mm 6 m/s 729 mmHg 81%
    04:00 +3°C° 0.1 mm 6 m/s 729 mmHg 82%
    05:00 +3°C° 0.1 mm 6 m/s 729 mmHg 83%
    06:00 +3°C° 0.2 mm 6 m/s 730 mmHg 80%
    07:00 +4°C° 0.2 mm 7 m/s 731 mmHg 78%
    08:00 +4°C° 0.2 mm 7 m/s 731 mmHg 75%
    09:00 +4°C° 0 mm 8 m/s 732 mmHg 72%
    10:00 +4°C° 0 mm 8 m/s 733 mmHg 69%
    11:00 +4°C° 0 mm 8 m/s 734 mmHg 66%
    12:00 +4°C° 0 mm 8 m/s 734 mmHg 66%
    13:00 +4°C° 0 mm 7 m/s 734 mmHg 67%
    14:00 +4°C° 0 mm 7 m/s 735 mmHg 67%
    15:00 +4°C° 0 mm 7 m/s 735 mmHg 68%
    16:00 +4°C° 0 mm 6 m/s 735 mmHg 68%
    17:00 +5°C° 0 mm 5 m/s 735 mmHg 68%
    18:00 +3°C° 0 mm 5 m/s 735 mmHg 68%
    19:00 +4°C° 0 mm 4 m/s 735 mmHg 69%
    20:00 +4°C° 0 mm 4 m/s 735 mmHg 70%
    21:00 +3°C° 0.3 mm 4 m/s 734 mmHg 72%
    22:00 +3°C° 0.3 mm 4 m/s 733 mmHg 75%
    23:00 +3°C° 0.3 mm 4 m/s 733 mmHg 77%
    Arată mai mult